H1 CPF 2 NER 2024 7 21 9 203 01 glonass127 H2 1106403 9127 37869 2024 7 21 0 0 0 2024 7 24 23 45 0 900 1 1 0 0 0 1 H9 10 0 60512 0.00000 0 -3846142.125 -10127080.133 23150538.859 10 0 60512 900.00000 0 -1280918.752 -11314948.461 22879529.491 10 0 60512 1800.00000 0 1137064.973 -12660236.071 22166726.073 10 0 60512 2700.00000 0 3353600.679 -14119682.384 21025683.182 10 0 60512 3600.00000 0 5323690.782 -15641732.262 19478200.480 10 0 60512 4500.00000 0 7013173.624 -17168620.761 17553928.238 10 0 60512 5400.00000 0 8399900.137 -18638739.837 15289823.988 10 0 60512 6300.00000 0 9474413.027 -19989190.862 12729468.120 10 0 60512 7200.00000 0 10240099.346 -21158418.223 9922248.918 10 0 60512 8100.00000 0 10712808.705 -22088814.891 6922430.241 10 0 60512 9000.00000 0 10919951.466 -22729190.822 3788117.718 10 0 60512 9900.00000 0 10899113.024 -23036999.558 580141.951 10 0 60512 10800.00000 0 10696241.106 -22980227.466 -2639120.447 10 0 60512 11700.00000 0 10363481.600 -22538863.324 -5806965.187 10 0 60512 12600.00000 0 9956754.115 -21705883.062 -8861593.529 10 0 60512 13500.00000 0 9533170.511 -20487704.758 -11743335.092 10 0 60512 14400.00000 0 9148407.064 -18904091.382 -14395834.496 10 0 60512 15300.00000 0 8854143.720 -16987502.639 -16767176.452 10 0 60512 16200.00000 0 8695681.438 -14781920.929 -18810924.933 10 0 60512 17100.00000 0 8709841.470 -12341199.623 -20487053.895 10 0 60512 18000.00000 0 8923238.362 -9727002.871 -21762749.387 10 0 60512 18900.00000 0 9351002.129 -7006423.666 -22613065.678 10 0 60512 19800.00000 0 9996005.591 -4249381.137 -23021421.494 10 0 60512 20700.00000 0 10848630.725 -1525907.493 -22979926.025 10 0 60512 21600.00000 0 11887084.341 1096560.356 -22489528.321 10 0 60512 22500.00000 0 13078249.407 3555770.017 -21559987.578 10 0 60512 23400.00000 0 14379035.111 5797014.629 -20209665.813 10 0 60512 24300.00000 0 15738167.172 7775166.948 -18465148.254 10 0 60512 25200.00000 0 17098341.142 9456302.273 -16360700.417 10 0 60512 26100.00000 0 18398645.955 10818843.949 -13937574.278 10 0 60512 27000.00000 0 19577153.904 11854186.043 -11243178.937 10 0 60512 27900.00000 0 20573566.487 12566770.308 -8330133.842 10 0 60512 28800.00000 0 21331803.829 12973617.867 -5255224.830 10 0 60512 29700.00000 0 21802428.436 13103339.161 -2078284.896 10 0 60512 30600.00000 0 21944801.732 12994667.531 1138977.319 10 0 60512 31500.00000 0 21728883.760 12694581.444 4334177.671 10 0 60512 32400.00000 0 21136602.032 12256097.056 7445461.687 10 0 60512 33300.00000 0 20162733.947 11735825.820 10412691.657 10 0 60512 34200.00000 0 18815267.802 11191400.787 13178593.440 10 0 60512 35100.00000 0 17115229.034 10678879.768 15689842.168 10 0 60512 36000.00000 0 15095980.314 10250233.553 17898067.739 10 0 60512 36900.00000 0 12802025.392 9951023.152 19760762.833 10 0 60512 37800.00000 0 10287366.372 9818361.521 21242078.310 10 0 60512 38700.00000 0 7613481.753 9879243.233 22313493.039 10 0 60512 39600.00000 0 4847007.372 10149310.294 22954347.339 10 0 60512 40500.00000 0 2057213.918 10632104.507 23152231.507 10 0 60512 41400.00000 0 -686617.486 11318837.259 22903223.051 10 0 60512 42300.00000 0 -3317816.103 12188686.754 22211968.494 10 0 60512 43200.00000 0 -5774833.404 13209611.631 21091607.800 10 0 60512 44100.00000 0 -8003544.552 14339649.083 19563541.754 10 0 60512 45000.00000 0 -9959246.152 15528645.881 17657045.004 10 0 60512 45900.00000 0 -11608268.639 16720352.809 15408729.893 10 0 60512 46800.00000 0 -12929136.609 17854797.693 12861868.755 10 0 60512 47700.00000 0 -13913228.297 18870839.921 10065585.077 10 0 60512 48600.00000 0 -14564905.478 19708800.956 7073926.568 10 0 60512 49500.00000 0 -14901106.747 20313060.993 3944835.870 10 0 60512 50400.00000 0 -14950419.364 20634512.130 739037.316 10 0 60512 51300.00000 0 -14751666.981 20632763.315 -2481139.584 10 0 60512 52200.00000 0 -14352071.371 20278001.674 -5652977.147 10 0 60512 53100.00000 0 -13805065.063 19552428.670 -8714602.678 10 0 60512 54000.00000 0 -13167847.392 18451206.992 -11606212.435 10 0 60512 54900.00000 0 -12498788.150 16982874.676 -14271260.672 10 0 60512 55800.00000 0 -11854790.376 15169205.716 -16657588.326 10 0 60512 56700.00000 0 -11288726.074 13044520.321 -18718466.955 10 0 60512 57600.00000 0 -10847056.037 10654471.923 -20413535.295 10 0 60512 58500.00000 0 -10567737.107 8054360.887 -21709608.082 10 0 60512 59400.00000 0 -10478507.840 5307045.548 -22581339.683 10 0 60512 60300.00000 0 -10595626.993 2480538.722 -23011728.428 10 0 60512 61200.00000 0 -10923119.445 -354608.548 -22992451.128 10 0 60512 62100.00000 0 -11452561.933 -3128025.178 -22524021.185 10 0 60512 63000.00000 0 -12163417.400 -5772225.137 -21615767.619 10 0 60512 63900.00000 0 -13023902.834 -8225185.340 -20285636.347 10 0 60512 64800.00000 0 -13992352.355 -10432688.151 -18559818.820 10 0 60512 65700.00000 0 -15019016.054 -12350330.850 -16472216.881 10 0 60512 66600.00000 0 -16048216.450 -13945119.126 -14063756.027 10 0 60512 67500.00000 0 -17020769.454 -15196579.898 -11381562.395 10 0 60512 68400.00000 0 -17876565.853 -16097349.606 -8478021.371 10 0 60512 69300.00000 0 -18557203.007 -16653216.623 -5409737.999 10 0 60512 70200.00000 0 -19008555.028 -16882619.730 -2236421.000 10 0 60512 71100.00000 0 -19183172.992 -16815627.466 980286.625 10 0 60512 72000.00000 0 -19042414.676 -16492444.779 4178006.805 10 0 60512 72900.00000 0 -18558215.334 -15961512.805 7294831.806 10 0 60512 73800.00000 0 -17714426.681 -15277283.915 10270512.685 10 0 60512 74700.00000 0 -16507669.629 -14497766.955 13047608.537 10 0 60512 75600.00000 0 -14947666.806 -13681946.237 15572575.647 10 0 60512 76500.00000 0 -13057042.309 -12887182.127 17796777.350 10 0 60512 77400.00000 0 -10870597.949 -12166700.974 19677397.247 10 0 60512 78300.00000 0 -8434096.246 -11567277.749 21178240.520 10 0 60512 79200.00000 0 -5802600.118 -11127206.234 22270410.297 10 0 60512 80100.00000 0 -3038436.638 -10874639.623 22932848.125 10 0 60512 81000.00000 0 -208867.040 -10826369.116 23152729.900 10 0 60512 81900.00000 0 2616443.425 -10987090.404 22925710.790 10 0 60512 82800.00000 0 5368054.176 -11349188.335 22256014.838 10 0 60512 83700.00000 0 7979370.990 -11893049.276 21156367.230 10 0 60512 84600.00000 0 10389155.100 -12587889.525 19647769.411 10 0 60512 85500.00000 0 12543818.104 -13393067.185 17759119.636 10 0 60513 0.00000 0 14399409.011 -14259825.094 15526684.175 10 0 60513 900.00000 0 15923212.561 -15133394.923 12993425.469 10 0 60513 1800.00000 0 17094889.717 -15955375.508 10208200.590 10 0 60513 2700.00000 0 17907115.123 -16666289.004 7224838.908 10 0 60513 3600.00000 0 18365680.767 -17208207.349 4101117.539 10 0 60513 4500.00000 0 18489060.631 -17527339.020 897651.690 10 0 60513 5400.00000 0 18307452.453 -17576466.021 -2323279.306 10 0 60513 6300.00000 0 17861335.191 -17317126.345 -5498947.607 10 0 60513 7200.00000 0 17199601.775 -16721446.955 -8567409.843 10 0 60513 8100.00000 0 16377345.380 -15773546.476 -11468732.111 10 0 60513 9000.00000 0 15453393.220 -14470444.822 -14146181.371 10 0 60513 9900.00000 0 14487693.016 -12822437.719 -16547357.694 10 0 60513 10800.00000 0 13538664.393 -10852917.114 -18625242.894 10 0 60513 11700.00000 0 12660629.552 -8597642.569 -20339142.845 10 0 60513 12600.00000 0 11901434.267 -6103492.595 -21655502.989 10 0 60513 13500.00000 0 11300362.089 -3426747.581 -22548579.440 10 0 60513 14400.00000 0 10886431.844 -630976.295 -23000951.375 10 0 60513 15300.00000 0 10677151.718 2215384.701 -23003864.040 10 0 60513 16200.00000 0 10677783.211 5041656.315 -22557395.583 10 0 60513 17100.00000 0 10881145.818 7777635.697 -21670444.860 10 0 60513 18000.00000 0 11267969.751 10356293.661 -20360541.305 10 0 60513 18900.00000 0 11807780.133 12716337.152 -18653481.866 10 0 60513 19800.00000 0 12460273.186 14804529.439 -16582803.609 10 0 60513 20700.00000 0 13177123.845 16577671.518 -14189104.103 10 0 60513 21600.00000 0 13904145.956 18004163.177 -11519224.693 10 0 60513 22500.00000 0 14583711.510 19065080.548 -8625314.503 10 0 60513 23400.00000 0 15157324.841 19754727.836 -5563795.221 10 0 60513 24300.00000 0 15568241.753 20080643.453 -2394248.421 10 0 60513 25200.00000 0 15764022.391 20063063.936 821751.658 10 0 60513 26100.00000 0 15698910.213 19733871.699 4021836.306 10 0 60513 27000.00000 0 15335937.533 19135074.074 7144047.875 10 0 60513 27900.00000 0 14648670.231 18316880.132 10128029.503 10 0 60513 28800.00000 0 13622519.845 17335457.878 12916176.715 10 0 60513 29700.00000 0 12255569.641 16250466.814 15454729.966 10 0 60513 30600.00000 0 10558881.484 15122469.296 17694788.816 10 0 60513 31500.00000 0 8556271.724 14010328.190 19593230.304 10 0 60513 32400.00000 0 6283565.819 12968698.078 21113516.157 10 0 60513 33300.00000 0 3787362.294 12045712.797 22226375.638 10 0 60513 34200.00000 0 1123356.198 11280963.612 22910353.018 10 0 60513 35100.00000 0 -1645710.442 10703850.271 23152210.868 10 0 60513 36000.00000 0 -4452388.930 10332371.984 22947182.605 10 0 60513 36900.00000 0 -7227061.165 10172407.724 22299069.868 10 0 60513 37800.00000 0 -9900572.131 10217515.603 21220182.592 10 0 60513 38700.00000 0 -12406851.791 10449260.288 19731121.854 10 0 60513 39600.00000 0 -14685420.409 10838056.190 17860407.951 10 0 60513 40500.00000 0 -16683675.454 11344493.147 15643958.597 10 0 60513 41400.00000 0 -18358866.245 11921091.413 13124424.689 10 0 60513 42300.00000 0 -19679674.357 12514414.757 10350393.744 10 0 60513 43200.00000 0 -20627333.241 13067454.931 7375473.819 10 0 60513 44100.00000 0 -21196238.826 13522188.668 4257273.405 10 0 60513 45000.00000 0 -21394023.578 13822200.050 1056295.447 10 0 60513 45900.00000 0 -21241088.693 13915257.199 -2165234.030 10 0 60513 46800.00000 0 -20769612.030 13755733.067 -5344580.102 10 0 60513 47700.00000 0 -20022071.766 13306765.626 -8419731.694 10 0 60513 48600.00000 0 -19049346.997 12542063.056 -11330627.631 10 0 60513 49500.00000 0 -17908475.083 11447274.097 -14020350.282 10 0 60513 50400.00000 0 -16660160.884 10020861.945 -16436261.269 10 0 60513 51300.00000 0 -15366144.409 8274441.377 -18531054.775 10 0 60513 52200.00000 0 -14086539.828 6232561.837 -20263705.574 10 0 60513 53100.00000 0 -12877260.426 3931943.399 -21600291.179 10 0 60513 54000.00000 0 -11787640.474 1420196.326 -22514670.395 10 0 60513 54900.00000 0 -10858356.311 -1245922.605 -22989003.779 10 0 60513 55800.00000 0 -10119735.847 -4002643.613 -23014105.159 10 0 60513 56700.00000 0 -9590528.596 -6781617.053 -22589617.205 10 0 60513 57600.00000 0 -9277188.066 -9512543.166 -21724008.024 10 0 60513 58500.00000 0 -9173695.922 -12125887.077 -20434389.673 10 0 60513 59400.00000 0 -9261933.702 -14555564.424 -18746163.400 10 0 60513 60300.00000 0 -9512584.115 -16741484.645 -16692500.059 10 0 60513 61200.00000 0 -9886521.223 -18631845.474 -14313667.641 10 0 60513 62100.00000 0 -10336627.911 -20185083.361 -11656220.905 10 0 60513 63000.00000 0 -10809961.145 -21371399.719 -8772070.809 10 0 60513 63900.00000 0 -11250171.044 -22173801.268 -5717453.709 10 0 60513 64800.00000 0 -11600069.661 -22588613.808 -2551821.993 10 0 60513 65700.00000 0 -11804239.717 -22625451.141 663320.973 10 0 60513 66600.00000 0 -11811572.607 -22306643.872 3865618.027 10 0 60513 67500.00000 0 -11577628.825 -21666155.358 6993063.892 10 0 60513 68400.00000 0 -11066722.188 -20748033.130 9985196.180 10 0 60513 69300.00000 0 -10253641.409 -19604462.914 12784249.323 10 0 60513 70200.00000 0 -9124938.247 -18293508.163 15336250.456 10 0 60513 71100.00000 0 -7679729.667 -16876630.133 17592037.852 10 0 60513 72000.00000 0 -5929981.664 -15416091.720 19508184.376 10 0 60513 72900.00000 0 -3900263.503 -13972352.200 21047810.502 10 0 60513 73800.00000 0 -1626982.570 -12601559.610 22181273.597 10 0 60513 74700.00000 0 842869.226 -11353243.041 22886722.326 10 0 60513 75600.00000 0 3453407.149 -10268298.559 23150507.284 10 0 60513 76500.00000 0 6141915.735 -9377350.494 22967441.147 10 0 60513 77400.00000 0 8841198.792 -8699554.660 22340903.826 10 0 60513 78300.00000 0 11482123.263 -8241892.401 21282790.348 10 0 60513 79200.00000 0 13996254.853 -7998984.737 19813301.434 10 0 60513 80100.00000 0 16318479.136 -7953435.037 17960579.089 10 0 60513 81000.00000 0 18389501.745 -8076687.305 15760192.009 10 0 60513 81900.00000 0 20158125.345 -8330366.045 13254478.072 10 0 60513 82800.00000 0 21583209.212 -8668043.702 10491753.939 10 0 60513 83700.00000 0 22635229.355 -9037363.496 7525404.436 10 0 60513 84600.00000 0 23297372.774 -9382430.005 4412867.081 10 0 60513 85500.00000 0 23566118.120 -9646367.719 1214529.806 10 0 60514 0.00000 0 23451276.096 -9773939.679 -2007437.457 10 0 60514 900.00000 0 22975485.394 -9714114.698 -5190296.577 10 0 60514 1800.00000 0 22173183.334 -9422472.610 -8271971.890 10 0 60514 2700.00000 0 21089092.782 -8863343.324 -11192278.312 10 0 60514 3600.00000 0 19776288.189 -8011585.686 -13894116.862 10 0 60514 4500.00000 0 18293922.209 -6853927.404 -16324613.811 10 0 60514 5400.00000 0 16704709.334 -5389805.767 -18436178.559 10 0 60514 6300.00000 0 15072274.113 -3631670.339 -20187457.322 10 0 60514 7200.00000 0 13458477.783 -1604732.226 -21544161.930 10 0 60514 8100.00000 0 11920837.898 653831.511 -22479755.796 10 0 60514 9000.00000 0 10510151.751 3096185.922 -22975982.417 10 0 60514 9900.00000 0 9268425.283 5665604.043 -23023225.383 10 0 60514 10800.00000 0 8227195.721 8298615.999 -22620692.677 10 0 60514 11700.00000 0 7406318.743 10927450.355 -21776422.054 10 0 60514 12600.00000 0 6813270.635 13482664.110 -20507108.195 10 0 60514 13500.00000 0 6442993.274 15895850.009 -18837756.255 10 0 60514 14400.00000 0 6278286.263 18102306.836 -16801170.094 10 0 60514 15300.00000 0 6290726.843 20043560.327 -14437286.944 10 0 60514 16200.00000 0 6442075.662 21669629.300 -11792373.395 10 0 60514 17100.00000 0 6686105.849 22940942.949 -8918100.258 10 0 60514 18000.00000 0 6970775.209 23829830.573 -5870516.183 10 0 60514 18900.00000 0 7240647.206 24321523.632 -2708941.649 10 0 60514 19800.00000 0 7439456.612 24414630.933 505193.871 10 0 60514 20700.00000 0 7512710.294 24121070.174 3709547.995 10 0 60514 21600.00000 0 7410213.014 23465461.883 6842071.185 10 0 60514 22500.00000 0 7088412.122 22484014.089 9842198.918 10 0 60514 23400.00000 0 6512463.325 21222946.850 12652007.882 10 0 60514 24300.00000 0 5657932.033 19736524.277 15217315.122 10 0 60514 25200.00000 0 4512060.327 18084777.147 17488700.679 10 0 60514 26100.00000 0 3074547.818 16331011.102 19422436.082 10 0 60514 27000.00000 0 1357814.661 14539203.416 20981303.126 10 0 60514 27900.00000 0 -613263.948 12771395.027 22135289.542 10 0 60514 28800.00000 0 -2802141.177 11085184.172 22862150.283 10 0 60514 29700.00000 0 -5161868.630 9531423.342 23147825.442 10 0 60514 30600.00000 0 -7636802.408 8152212.832 22986707.944 10 0 60514 31500.00000 0 -10164677.143 6979272.176 22381756.426 10 0 60514 32400.00000 0 -12678965.165 6032755.601 21344450.874 10 0 60514 33300.00000 0 -15111426.315 5320559.983 19894590.909 10 0 60514 34200.00000 0 -17394745.775 4838154.108 18059938.907 10 0 60514 35100.00000 0 -19465153.058 4568937.152 15875712.630 10 0 60514 36000.00000 0 -21264915.243 4485112.759 13383934.524 10 0 60514 36900.00000 0 -22744601.647 4549043.983 10632647.575 10 0 60514 37800.00000 0 -23865025.491 4715034.143 7675010.248 10 0 60514 38700.00000 0 -24598780.484 4931460.462 4568285.775 10 0 60514 39600.00000 0 -24931306.186 5143171.904 1372743.668 10 0 60514 40500.00000 0 -24861435.120 5294050.492 -1849506.230 10 0 60514 41400.00000 0 -24401395.979 5329627.552 -5035724.789 10 0 60514 42300.00000 0 -23576270.181 5199642.860 -8123775.616 10 0 60514 43200.00000 0 -22422922.449 4860436.177 -11053352.874 10 0 60514 44100.00000 0 -20988448.787 4277066.988 -13767179.205 10 0 60514 45000.00000 0 -19328206.502 3425069.331 -16212148.206 10 0 60514 45900.00000 0 -17503509.249 2291763.935 -18340386.840 10 0 60514 46800.00000 0 -15579085.006 877068.739 -20110214.718 10 0 60514 47700.00000 0 -13620405.535 -806229.377 -21486979.445 10 0 60514 48600.00000 0 -11691001.586 -2732755.472 -22443749.962 10 0 60514 49500.00000 0 -9849878.678 -4865369.717 -22961853.108 10 0 60514 50400.00000 0 -8149143.820 -7156498.964 -23031242.121 10 0 60514 51300.00000 0 -6631944.190 -9549920.646 -22650689.721 10 0 60514 52200.00000 0 -5330804.885 -11982923.454 -21827802.330 10 0 60514 53100.00000 0 -4266435.298 -14388752.931 -20578855.932 10 0 60514 54000.00000 0 -3447053.060 -16699238.140 -18928458.003 10 0 60514 54900.00000 0 -2868251.899 -18847488.030 -16909043.613 10 0 60514 55800.00000 0 -2513416.229 -20770543.521 -14560217.314 10 0 60514 56700.00000 0 -2354661.724 -22411873.728 -11927955.532 10 0 60514 57600.00000 0 -2354258.762 -23723611.923 -9063686.909 10 0 60514 58500.00000 0 -2466475.257 -24668438.429 -6023270.385 10 0 60514 59400.00000 0 -2639758.040 -25221033.193 -2865892.548 10 0 60514 60300.00000 0 -2819158.125 -25369039.380 347092.971 10 0 60514 61200.00000 0 -2948895.693 -25113500.331 3553360.528 10 0 60514 62100.00000 0 -2974955.549 -24468754.457 6690818.293 10 0 60514 63000.00000 0 -2847603.405 -23461795.344 9698801.628 10 0 60514 63900.00000 0 -2523717.538 -22131126.321 12519231.540 10 0 60514 64800.00000 0 -1968838.809 -20525159.346 15097717.075 10 0 60514 65700.00000 0 -1158854.345 -18700226.189 17384582.130 10 0 60514 66600.00000 0 -81245.720 -16718285.167 19335798.913 10 0 60514 67500.00000 0 1264149.381 -14644418.294 20913812.436 10 0 60514 68400.00000 0 2864893.145 -12544221.537 22088242.509 10 0 60514 69300.00000 0 4696231.420 -10481194.536 22836451.871 10 0 60514 70200.00000 0 6721894.277 -8514235.656 23143971.342 10 0 60514 71100.00000 0 8895381.729 -6695343.669 23004775.064 10 0 60514 72000.00000 0 11161683.544 -5067618.997 22421401.079 10 0 60514 72900.00000 0 13459364.683 -3663645.412 21404914.737 10 0 60514 73800.00000 0 15722933.064 -2504317.998 19974714.688 10 0 60514 74700.00000 0 17885394.525 -1598165.539 18158183.518 10 0 60514 75600.00000 0 19880891.696 -941195.673 15990187.590 10 0 60514 76500.00000 0 21647319.317 -517270.202 13512433.128 10 0 60514 77400.00000 0 23128808.390 -298996.296 10772688.293 10 0 60514 78300.00000 0 24277975.958 -249097.997 7823883.656 10 0 60514 79200.00000 0 25057845.833 -322212.151 4723106.221 10 0 60514 80100.00000 0 25443358.293 -467034.644 1530504.758 10 0 60514 81000.00000 0 25422403.127 -628727.303 -1691873.356 10 0 60514 81900.00000 0 24996329.862 -751483.896 -4881291.509 10 0 60514 82800.00000 0 24179910.799 -781145.927 -7975555.388 10 0 60514 83700.00000 0 23000755.686 -667755.814 -10914241.549 10 0 60514 84600.00000 0 21498200.451 -367936.866 -13639897.357 10 0 60514 85500.00000 0 19721715.265 153003.791 -16099186.727 10 0 60515 0.00000 0 17728898.436 919341.652 -18243956.799 10 0 60515 900.00000 0 15583139.683 1943647.844 -20032203.543 10 0 60515 1800.00000 0 13351054.729 3226005.146 -21428912.491 10 0 60515 2700.00000 0 11099796.969 4753764.066 -22406760.244 10 0 60515 3600.00000 0 8894363.555 6501850.184 -22946658.830 10 0 60515 4500.00000 0 6795009.703 8433611.239 -23038132.685 10 0 60515 5400.00000 0 4854881.338 10502168.482 -22679520.474 10 0 60515 6300.00000 0 3117966.209 12652215.041 -21877998.109 10 0 60515 7200.00000 0 1617449.506 14822184.661 -20649423.292 10 0 60515 8100.00000 0 374542.140 16946698.397 -19018005.797 10 0 60515 9000.00000 0 -602170.891 18959185.085 -17015811.447 10 0 60515 9900.00000 0 -1316837.190 20794564.291 -14682111.212 10 0 60515 10800.00000 0 -1785897.429 22391878.223 -12062590.017 10 0 60515 11700.00000 0 -2037121.698 23696761.791 -9208432.581 10 0 60515 12600.00000 0 -2108165.999 24663647.469 -6175305.985 10 0 60515 13500.00000 0 -2044713.310 25257613.439 -3022260.428 10 0 60515 14400.00000 0 -1898280.678 25455799.177 189429.112 10 0 60515 15300.00000 0 -1723787.317 25248331.283 3397456.772 10 0 60515 16200.00000 0 -1576987.885 24638723.335 6539691.648 10 0 60515 17100.00000 0 -1511879.960 23643735.597 9555372.294 10 0 60515 18000.00000 0 -1578194.854 22292702.954 12386267.364 10 0 60515 18900.00000 0 -1819076.575 20626361.159 14977781.199 10 0 60515 19800.00000 0 -2269045.251 18695221.746 17279984.742 10 0 60515 20700.00000 0 -2952328.936 16557563.916 19248553.926 10 0 60515 21600.00000 0 -3881632.238 14277126.623 20845599.834 10 0 60515 22500.00000 0 -5057392.160 11920595.610 22040376.953 10 0 60515 23400.00000 0 -6467551.681 9554987.792 22809858.091 10 0 60515 24300.00000 0 -8087860.746 7245039.018 23139166.703 10 0 60515 25200.00000 0 -9882693.185 5050700.719 23021859.596 10 0 60515 26100.00000 0 -11806347.467 3024846.487 22460055.140 10 0 60515 27000.00000 0 -13804779.735 1211281.193 21464404.389 10 0 60515 27900.00000 0 -15817700.134 -356866.685 20053904.728 10 0 60515 28800.00000 0 -17780948.414 -1658303.912 18255558.018 10 0 60515 29700.00000 0 -19629053.015 -2684234.738 16103877.666 10 0 60515 30600.00000 0 -21297869.603 -3438498.545 13640251.533 10 0 60515 31500.00000 0 -22727190.822 -3937176.048 10912170.299 10 0 60515 32400.00000 0 -23863219.095 -4207679.053 7972333.590 10 0 60515 33300.00000 0 -24660798.881 -4287360.246 4877648.817 10 0 60515 34200.00000 0 -25085313.579 -4221699.843 1688140.450 10 0 60515 35100.00000 0 -25114165.416 -4062144.361 -1534210.272 10 0 60515 36000.00000 0 -24737773.361 -3863688.161 -4726672.945 10 0 60515 36900.00000 0 -23960043.968 -3682300.256 -7826998.991 10 0 60515 37800.00000 0 -22798292.261 -3572306.427 -10774650.921 10 0 60515 38700.00000 0 -21282613.157 -3583839.436 -13512004.221 10 0 60515 39600.00000 0 -19454727.734 -3760467.971 -15985496.264 10 0 60515 40500.00000 0 -17366351.509 -4137107.804 -18146697.533 10 0 60515 41400.00000 0 -15077152.828 -4738306.846 -19953281.949 10 0 60515 42300.00000 0 -12652387.525 -5576979.722 -21369875.191 10 0 60515 43200.00000 0 -10160310.211 -6653648.085 -22368762.710 10 0 60515 44100.00000 0 -7669472.295 -7956220.827 -22930442.261 10 0 60515 45000.00000 0 -5246021.704 -9460324.782 -23044009.370 10 0 60515 45900.00000 0 -2951119.034 -11130172.506 -22707367.939 10 0 60515 46800.00000 0 -838579.427 -12919930.338 -21927262.145 10 0 60515 47700.00000 0 1047160.530 -14775528.270 -20719129.747 10 0 60515 48600.00000 0 2672666.112 -16636834.099 -19106780.832 10 0 60515 49500.00000 0 4016651.213 -18440098.878 -17121909.738 10 0 60515 50400.00000 0 5070602.610 -20120569.238 -14803451.460 10 0 60515 51300.00000 0 5838858.453 -21615155.440 -12196796.929 10 0 60515 52200.00000 0 6338141.198 -22865042.138 -9352884.427 10 0 60515 53100.00000 0 6596568.399 -23818131.831 -6327186.673 10 0 60515 54000.00000 0 6652186.807 -24431218.738 -3178615.026 10 0 60515 54900.00000 0 6551095.082 -24671802.863 31636.554 10 0 60515 55800.00000 0 6345237.160 -24519469.744 3241284.260 10 0 60515 56700.00000 0 6089961.560 -23966780.133 6388160.282 10 0 60515 57600.00000 0 5841450.802 -23019634.635 9411408.428 10 0 60515 58500.00000 0 5654129.705 -21697100.359 12252646.946 10 0 60515 59400.00000 0 5578161.214 -20030708.849 14857077.295 10 0 60515 60300.00000 0 5657134.003 -18063256.077 17174519.131 10 0 60515 61200.00000 0 5926037.431 -15847155.282 19160353.623 10 0 60515 62100.00000 0 6409607.106 -13442411.130 20776359.222 10 0 60515 63000.00000 0 7121108.806 -10914298.395 21991426.175 10 0 60515 63900.00000 0 8061610.532 -8330839.773 22782138.198 10 0 60515 64800.00000 0 9219772.653 -5760184.994 23133211.978 10 0 60515 65700.00000 0 10572165.313 -3267996.951 23037787.336 10 0 60515 66600.00000 0 12084101.114 -914950.235 22497563.093 10 0 60515 67500.00000 0 13710950.416 1245557.138 21522775.923 10 0 60515 68400.00000 0 15399887.173 3169386.307 20132021.660 10 0 60515 69300.00000 0 17091995.574 4823253.876 18351920.971 10 0 60515 70200.00000 0 18724652.743 6185876.530 16216633.634 10 0 60515 71100.00000 0 20234090.899 7248616.418 13767228.264 10 0 60515 72000.00000 0 21558034.107 8015599.668 11050916.959 10 0 60515 72900.00000 0 22638300.652 8503301.827 8120167.013 10 0 60515 73800.00000 0 23423262.362 8739615.978 5031704.602 10 0 60515 74700.00000 0 23870056.905 8762440.955 1845427.953 10 0 60515 75600.00000 0 23946458.409 8617847.665 -1376750.024 10 0 60515 76500.00000 0 23632325.138 8357899.865 -4572107.552 10 0 60515 77400.00000 0 22920560.187 8038221.196 -7678344.344 10 0 60515 78300.00000 0 21817541.379 7715411.970 -10634811.488 10 0 60515 79200.00000 0 20342999.056 7444426.416 -13383715.202 10 0 60515 80100.00000 0 18529344.108 7276023.606 -15871268.864 10 0 60515 81000.00000 0 16420472.456 7254402.711 -18048768.559 10 0 60515 81900.00000 0 14070094.989 7415125.655 -19873568.844 10 0 60515 82800.00000 0 11539662.795 7783418.099 -21309937.508 10 0 60515 83700.00000 0 8895975.207 8372923.304 -22329770.855 10 0 60515 84600.00000 0 6208572.060 9184963.741 -22913154.202 10 0 60515 85500.00000 0 3547020.884 10208343.117 -23048755.767 99